Zurück zum Katalog

SL-8 DEB *

AktivLEO
NORAD 6252·DEBRIS·🇷🇺 Russia

Gestartet Mar 15, 1965 von Baikonur Cosmodrome

Loading…

Nächste Überflüge (nächste 24 Stunden)

TLE

AktuellSource: Space-Track

Epoche: Sep 12, 2026, 19:29 UTC

1 06252U 65020FD  26255.81209340 -.00000121  00000-0 -23980-3 0  9996
2 06252  56.0370 187.6040 0197588  29.7567 358.9291 12.30085490675869

Verfolge SL-8 DEB * in Echtzeit mit AllMySat

Download on the App Store